Home > Weather > Heilbronn > Past weeks

Flag for Germany Past Weather in Heilbronn, Baden-Württemberg, Germany — Yesterday and Last 2 Weeks

Now
63 °F

Clear.


Feels Like: 63 °F
Forecast: 47 / 69 °F
Wind: 1 mph from North

Location: Stuttgart-Echterdingen

Current Time: Jul 2, 2016 at 4:15:28 AM

Latest Report: Jul 2, 2016 at 3:20 AM


Visibility: 10 mi

Pressure: 29.95 "Hg

Humidity: 83%

Dew Point: 57 °F

Location of HeilbronnLocation

Past Weather in Heilbronn — Graph

°F

Heilbronn Temperature Yesterday

Maximum temperature yesterday: 79 °F (at 2:50 PM)
Minimum temperature yesterday: 61 °F (at 3:20 AM)
Average temperature yesterday: 70 °F

High & Low Weather Summary for the Past Weeks

 TemperatureHumidityPressure
High91 °F (Jun 23, 4:50 PM)100% (Jun 17, 3:20 AM)30.27 "Hg (Jun 17, 3:20 AM)
Low48 °F (Jun 20, 4:20 AM)30% (Jun 23, 5:20 PM)29.65 "Hg (Jun 17, 2:20 AM)
Average66 °F73%30.08 "Hg
* Reported Jun 17 2:20 AM — Jul 2 2:50 AM, Heilbronn, Weather by CustomWeather, © 2016

Note: Actual official high and low records may vary slightly from our data, if they occured in-between our weather recording intervals... More about our weather records

Advertising

Heilbronn Weather History for the Previous 24 Hours

Scroll right to see more
 ConditionsComfort  
Time TempWeatherWind HumidityBarometerVisibility
2:50 AM
Sat, Jul 2
63 °FClear.1 mph83%29.98 "Hg10 mi
2:20 AM63 °FClear.1 mph83%29.98 "Hg10 mi
1:50 AM64 °FClear.1 mph78%29.98 "Hg10 mi
1:20 AM64 °FPassing clouds.3 mph73%30.01 "HgN/A
12:50 AM64 °FPassing clouds.3 mph78%30.01 "HgN/A
12:20 AM64 °FClear.6 mph73%30.01 "Hg10 mi
11:50 PM
Fri, Jul 1
66 °FPassing clouds.3 mph68%30.01 "HgN/A
11:20 PM68 °FPassing clouds.3 mph64%30.01 "HgN/A
10:50 PM70 °FClear.2 mph69%30.01 "Hg10 mi
10:20 PM72 °FSunny.1 mph65%30.01 "Hg10 mi
9:50 PM73 °FPassing clouds.3 mph61%30.01 "HgN/A
9:20 PM75 °FPassing clouds.10 mph54%30.01 "HgN/A
8:50 PM75 °FSunny.12 mph44%29.98 "Hg10 mi
8:20 PM77 °FPassing clouds.7 mph44%30.01 "HgN/A
7:50 PM77 °FPassing clouds.9 mph44%29.98 "HgN/A
7:20 PM79 °FPassing clouds.10 mph42%29.98 "HgN/A
6:50 PM79 °FPassing clouds.9 mph42%29.98 "HgN/A
6:20 PM79 °FSunny.8 mph42%30.01 "Hg10 mi
5:50 PM79 °FSunny.9 mph42%30.01 "Hg10 mi
5:20 PM79 °FPassing clouds.9 mph42%30.01 "HgN/A
4:50 PM79 °FPassing clouds.12 mph45%30.01 "HgN/A
4:20 PM79 °FSunny.9 mph42%30.01 "Hg10 mi
3:50 PM79 °FPassing clouds.13 mph45%30.04 "HgN/A
3:20 PM79 °FPassing clouds.13 mph48%30.04 "HgN/A
2:50 PM79 °FSunny.8 mph51%30.04 "Hg10 mi
2:20 PM77 °FPassing clouds.10 mph51%30.04 "HgN/A
1:50 PM77 °FScattered clouds.9 mph51%30.07 "HgN/A
1:20 PM75 °FScattered clouds.10 mph57%30.07 "HgN/A
12:50 PM73 °FScattered clouds.9 mph57%30.07 "HgN/A
12:20 PM72 °FScattered clouds.8 mph65%30.07 "HgN/A
11:50 AM72 °FScattered clouds.6 mph65%30.07 "HgN/A
11:20 AM73 °FPassing clouds.6 mph61%30.07 "HgN/A
10:50 AM72 °FPassing clouds.7 mph65%30.07 "HgN/A
10:20 AM70 °FPassing clouds.6 mph69%30.07 "HgN/A
9:50 AM70 °FScattered clouds.5 mph69%30.09 "HgN/A
9:20 AM66 °FScattered clouds.3 mph83%30.09 "HgN/A
8:50 AM66 °FScattered clouds.3 mph78%30.09 "HgN/A
8:20 AM64 °FPartly sunny.5 mph83%30.07 "HgN/A
7:50 AM64 °FPartly sunny.2 mph83%30.07 "HgN/A
7:20 AM63 °FPartly sunny.1 mph88%30.07 "HgN/A
6:50 AM63 °FPartly sunny.1 mph94%30.07 "HgN/A
6:20 AM61 °FPassing clouds.2 mph94%30.07 "HgN/A
5:50 AM61 °FPassing clouds.No wind94%30.07 "HgN/A
5:20 AM63 °FPassing clouds.2 mph88%30.07 "HgN/A
4:50 AM63 °FPassing clouds.1 mph88%30.07 "HgN/A
4:20 AM63 °FLight rain. Passing clouds.1 mph88%30.04 "HgN/A
Weather by CustomWeather, © 2016

See weather overviewHow to use our weather pages